[[{"header":{"parameterUnit":"m.s-1","parameterCategory":1,"la1":30.2991,"la2":30.254,"lo1":-89.0895,"lo2":-89.0444,"dy":0.0017,"dx":0.0017,"nx":28,"ny":28,"refTime":"2025-05-26T21:00:00:Z","depth":0,"parameterNumber":2,"parameterNumberName":"U-component_of_WINDS"},"data":[0,0,0,0,0,0,0,0,0,0,0,0,0,0,0,0,0,0,0,0,0,0,0,0,0,0,0,0,0,0,0,0,0,0,0,0,0,0,0,0,0,0,0,0,0,0,0,0,0,0,0,0,0,0,0,0,0,0,0.3696,0.3695,0,0.364,0.3639,0.3639,0.3596,0.3596,0.3595,0.3595,0.3535,0.3534,0.3533,0,0,0,0,0,0,0,0,0,0,0,0,0,0.3762,0.3761,0.3696,0.3695,0.3694,0.364,0.3639,0.3638,0.3596,0.3596,0.3595,0.3595,0.3536,0.3534,0.3533,0,0,0,0,0,0,0,0,0,0,0,0,0,0.3722,0.3761,0.3696,0.3667,0.3664,0.364,0.3639,0.3638,0.3596,0.3596,0.3595,0.3595,0.3536,0.3534,0.3532,0.3533,0,0,0.3527,0.3526,0,0,0,0,0,0,0,0,0.3725,0.372,0.3672,0.3669,0.3665,0.3624,0.3641,0.3603,0.3597,0.3622,0.3595,0.3594,0.3565,0.3561,0.3552,0.353,0.3527,0.3527,0.3525,0.3525,0.3524,0,0,0,0,0,0,0,0.3727,0.3722,0.3673,0.3671,0.3667,0.3655,0.3649,0.3633,0.3597,0.362,0.3616,0.3611,0.3563,0.3553,0.355,0.3526,0.3527,0.3525,0.3524,0.3523,0.35,0.3501,0,0,0,0,0,0,0.3735,0.3725,0.3675,0.3672,0.3694,0.3655,0.3648,0.3638,0.3597,0.3591,0.3611,0.3609,0.3557,0.3552,0.3548,0.3544,0.3525,0.3523,0.3522,0.35,0.35,0.3501,0,0,0,0,0,0,0.3737,0.3731,0.3677,0.3697,0.369,0.3654,0.3644,0.3637,0.3628,0.3591,0.3584,0.3608,0.3556,0.355,0.3536,0.3542,0.3522,0.352,0.3499,0.35,0.35,0.3538,0,0,0,0,0,0,0.3739,0.3732,0.3733,0.3698,0.3689,0.3669,0.3644,0.3637,0.3625,0.3621,0.3586,0.358,0.3555,0.3539,0.3535,0.3539,0.3519,0.3498,0.3499,0.35,0.3536,0.354,0.3543,0,0,0,0,0,0.3741,0.3745,0.3733,0.3727,0.3689,0.3669,0.3664,0.3636,0.3625,0.3625,0.3601,0.3581,0.3542,0.3538,0.3533,0.3536,0.3498,0.3499,0.35,0.3535,0.3539,0.3543,0,0,0,0,0,0,0.378,0.374,0.3726,0.3719,0.3698,0.3662,0.3661,0.3642,0.3623,0.3621,0.3586,0.3579,0.3568,0.3551,0.3548,0.3533,0.3517,0.3517,0.3545,0.355,0.3553,0.3557,0.3517,0,0,0,0,0,0.3789,0.3777,0.3741,0.3738,0.3729,0.3697,0.3687,0.3668,0.3644,0.3635,0.361,0.3587,0.3569,0.3558,0.354,0.3534,0.3525,0.3533,0.3537,0.354,0.354,0.3534,0.3537,0.3504,0.3504,0.3504,0,0,0.3804,0.3781,0.3775,0.3746,0.3727,0.3714,0.3689,0.3677,0.3667,0.3632,0.3618,0.3599,0.3571,0.3561,0.3555,0.3546,0.3547,0.3541,0.3544,0.3542,0.3535,0.3538,0.3541,0.3505,0.3505,0.3505,0,0,0.3827,0.3809,0.3804,0.3786,0.3758,0.3737,0.3736,0.3702,0.3689,0.3674,0.3647,0.3634,0.3605,0.3586,0.3572,0.3587,0.3567,0.3582,0.36,0.3595,0.3597,0.3599,0.3604,0.3606,0.3582,0.3582,0.3582,0,0.385,0.3831,0.3803,0.3793,0.378,0.3748,0.3742,0.3726,0.3694,0.3685,0.3675,0.3637,0.3616,0.36,0.3604,0.3594,0.3591,0.3586,0.3599,0.3601,0.3603,0.3606,0.3608,0.3584,0.3584,0.3584,0.3584,0,0.3861,0.3848,0.3847,0.3817,0.3804,0.3796,0.3765,0.3755,0.3737,0.3716,0.3701,0.3675,0.365,0.3645,0.3627,0.3626,0.3621,0.3606,0.3589,0.3608,0.3611,0.3612,0.3587,0.3586,0.3586,0.3585,0,0,0.3906,0.3861,0.3861,0.3847,0.3814,0.3803,0.3793,0.377,0.3762,0.374,0.373,0.3705,0.3691,0.3676,0.3655,0.365,0.3662,0.3635,0.3634,0.3641,0.3659,0.367,0.3673,0.3649,0.3649,0.3649,0.3661,0,0.3924,0.3905,0.3879,0.3868,0.3855,0.3825,0.3816,0.3794,0.3774,0.3759,0.3736,0.372,0.3702,0.3693,0.3687,0.3662,0.3665,0.3661,0.3638,0.3637,0.3646,0.3674,0.3686,0.3699,0.3662,0.3662,0.3662,0,0.3941,0.3922,0.391,0.3878,0.3872,0.3864,0.384,0.3827,0.3801,0.3787,0.3769,0.3747,0.3733,0.3718,0.3698,0.3695,0.3684,0.3671,0.367,0.3667,0.3651,0.3671,0.3702,0.3704,0.3664,0.3664,0.3664,0,0.3975,0.3946,0.3935,0.3924,0.3886,0.3882,0.3865,0.3839,0.3826,0.3805,0.3796,0.3774,0.3761,0.3743,0.3715,0.3707,0.3697,0.368,0.3684,0.3685,0.3683,0.3683,0.3712,0.3677,0.3677,0.3677,0.3677,0,0.3996,0.399,0.395,0.3943,0.3935,0.3905,0.3897,0.3878,0.3854,0.3842,0.3814,0.3803,0.3767,0.3751,0.3728,0.3714,0.3709,0.3696,0.369,0.3698,0.37,0.369,0.3688,0.3677,0.3677,0.3677,0.3677,0,0.4033,0.4006,0.3992,0.3957,0.3948,0.3944,0.3913,0.3905,0.3883,0.3868,0.3863,0.3829,0.3809,0.3778,0.3749,0.3734,0.3723,0.3714,0.3732,0.3729,0.3734,0.3734,0.3757,0.3758,0.3723,0.3723,0.3724,0,0.4048,0.4043,0.4008,0.3998,0.3983,0.3968,0.3955,0.3925,0.3912,0.3882,0.3877,0.3855,0.3836,0.3805,0.3777,0.3754,0.3743,0.3753,0.3739,0.3747,0.3742,0.3743,0.3741,0.3756,0.3756,0.3757,0.3757,0,0.4078,0.4065,0.4048,0.4027,0.4012,0.3994,0.3974,0.3967,0.3932,0.3919,0.3899,0.3884,0.3854,0.3832,0.3805,0.3787,0.3766,0.3762,0.3761,0.3769,0.378,0.3774,0.374,0.3761,0.3761,0.3761,0.376,0.376,0.4103,0.4097,0.4071,0.4053,0.4035,0.4017,0.4007,0.3985,0.3968,0.3942,0.3924,0.3905,0.3878,0.384,0.3822,0.3806,0.3796,0.3796,0.3796,0.3796,0.3799,0.3784,0.3801,0.38,0.38,0.38,0.38,0,0.4131,0.4113,0.4097,0.407,0.4056,0.4038,0.4015,0.4004,0.3987,0.3964,0.3946,0.3922,0.3901,0.3871,0.3846,0.3839,0.3828,0.3833,0.3833,0.3829,0.3808,0.3811,0.3842,0.3842,0.3842,0.3842,0.3842,0.3842,0.4144,0.4132,0.4115,0.4094,0.4075,0.4057,0.4045,0.4027,0.4009,0.3984,0.3966,0.3947,0.3921,0.3894,0.3873,0.3865,0.3857,0.3865,0.3853,0.3835,0.3831,0.3827,0.3829,0.3864,0.3864,0.3875,0.3875,0.3875]},{"header":{"parameterUnit":"m.s-1","parameterCategory":1,"la1":30.2991,"la2":30.254,"lo1":-89.0895,"lo2":-89.0444,"dy":0.0017,"dx":0.0017,"nx":28,"ny":28,"refTime":"2025-05-26T21:00:00:Z","depth":0,"parameterNumber":3,"parameterNumberName":"V-component_of_WINDS"},"data":[0,0,0,0,0,0,0,0,0,0,0,0,0,0,0,0,0,0,0,0,0,0,0,0,0,0,0,0,0,0,0,0,0,0,0,0,0,0,0,0,0,0,0,0,0,0,0,0,0,0,0,0,0,0,0,0,0,0,3.3649,3.3649,0,3.3649,3.3649,3.365,3.3619,3.3618,3.3617,3.3616,3.3617,3.3618,3.3618,0,0,0,0,0,0,0,0,0,0,0,0,0,3.3621,3.3622,3.3649,3.3649,3.3649,3.3649,3.3649,3.365,3.3619,3.3618,3.3617,3.3616,3.3617,3.3618,3.3618,0,0,0,0,0,0,0,0,0,0,0,0,0,3.3629,3.3622,3.3649,3.3633,3.3632,3.3649,3.3649,3.365,3.3619,3.3618,3.3617,3.3615,3.3616,3.3617,3.3619,3.365,0,0,3.3622,3.3623,0,0,0,0,0,0,0,0,3.3628,3.363,3.3636,3.3634,3.3633,3.3633,3.364,3.365,3.3619,3.3624,3.3616,3.3615,3.3623,3.3624,3.3626,3.365,3.365,3.3622,3.3623,3.3623,3.3624,0,0,0,0,0,0,0,3.3628,3.3629,3.3649,3.3636,3.3634,3.3627,3.3627,3.3642,3.363,3.3623,3.3621,3.3622,3.3622,3.3625,3.3626,3.365,3.3622,3.3623,3.3624,3.3624,3.3703,3.3704,0,0,0,0,0,0,3.3629,3.3629,3.3649,3.3649,3.3628,3.3628,3.3628,3.3634,3.363,3.3628,3.3623,3.362,3.3624,3.3625,3.3626,3.3664,3.3623,3.3625,3.3625,3.3701,3.3703,3.3704,0,0,0,0,0,0,3.3629,3.3631,3.3649,3.3639,3.364,3.363,3.3637,3.3635,3.3638,3.363,3.3628,3.3628,3.3623,3.3625,3.3645,3.3664,3.3625,3.3626,3.37,3.3702,3.3704,3.374,0,0,0,0,0,0,3.3628,3.3631,3.3643,3.3639,3.3641,3.3667,3.3638,3.3636,3.364,3.3637,3.3634,3.3633,3.3622,3.3644,3.3646,3.3665,3.3627,3.3698,3.3701,3.3703,3.3737,3.3743,3.3749,0,0,0,0,0,3.3627,3.3653,3.3644,3.3646,3.3655,3.3669,3.367,3.3657,3.3642,3.3654,3.3649,3.3633,3.3662,3.3646,3.3649,3.3668,3.3697,3.37,3.3703,3.3735,3.3742,3.3748,0,0,0,0,0,0,3.3658,3.3652,3.3642,3.3667,3.3669,3.3663,3.3678,3.3665,3.3671,3.3668,3.3653,3.3652,3.3676,3.3674,3.3656,3.37,3.3676,3.368,3.37,3.3707,3.3712,3.3712,3.3628,0,0,0,0,0,3.3668,3.368,3.3673,3.3696,3.3698,3.3688,3.3693,3.3684,3.3685,3.3685,3.3682,3.3684,3.3693,3.37,3.3708,3.3737,3.3737,3.3752,3.3758,3.3762,3.3766,3.3783,3.379,3.3715,3.3715,3.3714,0,0,3.3688,3.3686,3.3694,3.3702,3.3702,3.3715,3.3688,3.3702,3.3712,3.3687,3.3707,3.3705,3.3706,3.3731,3.3742,3.373,3.3787,3.3766,3.377,3.3771,3.3787,3.3794,3.38,3.3717,3.3716,3.3716,0,0,3.3732,3.3731,3.3751,3.3752,3.3753,3.3747,3.3752,3.3749,3.3747,3.3766,3.3749,3.376,3.3776,3.3779,3.3782,3.3829,3.3815,3.3832,3.3861,3.3877,3.3883,3.3889,3.3906,3.3913,3.3835,3.3835,3.3835,0,3.3757,3.3775,3.3762,3.3778,3.3783,3.3762,3.3782,3.3784,3.3788,3.3792,3.3779,3.38,3.3799,3.3826,3.3838,3.384,3.3846,3.3832,3.3884,3.3889,3.3893,3.391,3.3917,3.3837,3.3837,3.3837,3.3837,0,3.3806,3.3819,3.3835,3.384,3.3847,3.3865,3.3855,3.3863,3.3854,3.3849,3.387,3.3869,3.3877,3.3883,3.3873,3.3909,3.3901,3.3886,3.3863,3.3903,3.3919,3.3925,3.3841,3.384,3.3839,3.3839,0,0,3.3868,3.3868,3.3874,3.3876,3.3877,3.3887,3.3905,3.3914,3.3922,3.3926,3.3941,3.3956,3.3943,3.3946,3.3937,3.3952,3.3991,3.3935,3.3935,3.3946,3.4031,3.4043,3.4051,3.3982,3.3983,3.3984,3.4031,0,3.3911,3.3941,3.3931,3.3962,3.3975,3.3956,3.3972,3.3975,3.3971,3.3982,3.3978,3.399,3.3971,3.3973,3.3987,3.3983,3.4008,3.3979,3.3996,3.3997,3.3997,3.4058,3.4071,3.4116,3.4037,3.4038,3.4039,0,3.3965,3.3972,3.4005,3.4005,3.401,3.4024,3.4033,3.4043,3.4046,3.4043,3.4048,3.4036,3.4055,3.4031,3.4057,3.4038,3.4044,3.4044,3.4045,3.4046,3.4021,3.4062,3.413,3.4137,3.4048,3.4047,3.4047,0,3.4008,3.4026,3.4048,3.4051,3.4052,3.4062,3.4063,3.4065,3.4072,3.4079,3.4084,3.4093,3.4098,3.4106,3.4098,3.4081,3.4125,3.41,3.4123,3.4124,3.4133,3.4133,3.4203,3.4136,3.4136,3.4136,3.4136,0,3.4057,3.4078,3.4068,3.4081,3.4105,3.4093,3.4117,3.4116,3.4118,3.4132,3.4116,3.4129,3.4117,3.4129,3.4123,3.4146,3.4148,3.4146,3.4144,3.4148,3.4148,3.4152,3.4149,3.4138,3.4138,3.4137,3.4137,0,3.4109,3.4103,3.4126,3.4126,3.4126,3.4144,3.4143,3.4156,3.4153,3.417,3.4174,3.4168,3.4182,3.4174,3.4188,3.4184,3.4214,3.4208,3.4213,3.4212,3.4235,3.4234,3.4311,3.4321,3.4247,3.4248,3.4249,0,3.4141,3.4157,3.4159,3.4167,3.417,3.4183,3.419,3.418,3.4188,3.4194,3.4207,3.422,3.4229,3.4253,3.425,3.4261,3.4255,3.4282,3.4257,3.4261,3.4257,3.4256,3.4258,3.4287,3.4288,3.4288,3.4289,0,3.4199,3.4196,3.4207,3.4217,3.4227,3.4234,3.4241,3.4249,3.4239,3.4249,3.4264,3.4271,3.4287,3.43,3.431,3.4311,3.4299,3.4297,3.4303,3.4307,3.431,3.431,3.4228,3.4295,3.4294,3.4294,3.4294,3.4293,3.4242,3.4256,3.4261,3.4274,3.4278,3.4285,3.4298,3.4296,3.4308,3.4321,3.4314,3.4331,3.4336,3.4348,3.4351,3.4365,3.4355,3.4363,3.4365,3.4368,3.4372,3.4308,3.4367,3.4367,3.4367,3.4366,3.4366,0,3.43,3.4303,3.4315,3.4325,3.4337,3.4325,3.4332,3.4342,3.4357,3.4363,3.4373,3.4391,3.4404,3.4403,3.4416,3.4427,3.4422,3.4431,3.443,3.4431,3.438,3.4374,3.4435,3.4435,3.4435,3.4435,3.4435,3.4435,3.4332,3.4355,3.4353,3.4379,3.4381,3.4399,3.4404,3.4411,3.4415,3.4436,3.4447,3.4447,3.445,3.4463,3.4475,3.4474,3.448,3.4491,3.4489,3.4441,3.4434,3.4428,3.4422,3.4492,3.4492,3.4539,3.4539,3.454]}]]